• In Russia
  • List of Countries
  • For 7 days
  • Water Temperature
  • Satellite Maps
  • Weather Map
  • Weather Widgets
  • user-avatar
    Login

    Hourly Weather Melbourne

    Today, 11 December, Sunday

    Time Temperature Precipitation Wind Pressure Humidity
    00:00 +12°C° 0 mm 2 mps 766 mmHg 91%
    01:00 +12°C° 0 mm 2 mps 766 mmHg 92%
    02:00 +12°C° 0 mm 1 mps 766 mmHg 92%
    03:00 +12°C° 0 mm 1 mps 766 mmHg 92%
    04:00 +12°C° 0 mm 1 mps 765 mmHg 92%
    05:00 +13°C° 0 mm 1 mps 766 mmHg 89%
    06:00 +14°C° 0 mm 1 mps 766 mmHg 85%
    07:00 +14°C° 0 mm 1 mps 766 mmHg 82%
    08:00 +16°C° 0 mm 1 mps 766 mmHg 73%
    09:00 +19°C° 0 mm 1 mps 766 mmHg 64%
    10:00 +19°C° 0 mm 2 mps 766 mmHg 56%
    11:00 +20°C° 0 mm 2 mps 765 mmHg 52%
    12:00 +23°C° 0 mm 2 mps 765 mmHg 48%
    13:00 +24°C° 0 mm 2 mps 765 mmHg 44%
    14:00 +24°C° 0 mm 3 mps 764 mmHg 44%
    15:00 +24°C° 0 mm 3 mps 764 mmHg 45%
    16:00 +24°C° 0 mm 3 mps 763 mmHg 45%
    17:00 +21°C° 0 mm 3 mps 764 mmHg 51%
    18:00 +19°C° 0 mm 3 mps 764 mmHg 57%
    19:00 +18°C° 0 mm 2 mps 764 mmHg 63%
    20:00 +16°C° 0 mm 2 mps 764 mmHg 72%
    21:00 +14°C° 0 mm 2 mps 765 mmHg 80%
    22:00 +13°C° 0 mm 2 mps 765 mmHg 89%
    23:00 +12°C° 0 mm 1 mps 765 mmHg 91%

    Tomorrow, 12 December, Monday

    Time Temperature Precipitation Wind Pressure Humidity
    00:00 +11°C° 0 mm 1 mps 764 mmHg 94%
    01:00 +10°C° 0 mm 1 mps 764 mmHg 96%
    02:00 +10°C° 0 mm 1 mps 764 mmHg 96%
    03:00 +10°C° 0 mm 1 mps 763 mmHg 97%
    04:00 +9°C° 0 mm 0 mps 763 mmHg 97%
    05:00 +12°C° 0 mm 1 mps 763 mmHg 85%
    06:00 +15°C° 0 mm 1 mps 763 mmHg 74%
    07:00 +19°C° 0 mm 1 mps 763 mmHg 63%
    08:00 +22°C° 0 mm 1 mps 763 mmHg 53%
    09:00 +25°C° 0 mm 2 mps 762 mmHg 44%
    10:00 +28°C° 0 mm 2 mps 762 mmHg 35%
    11:00 +29°C° 0 mm 2 mps 761 mmHg 31%
    12:00 +31°C° 0 mm 2 mps 761 mmHg 26%
    13:00 +32°C° 0 mm 2 mps 760 mmHg 22%
    14:00 +32°C° 0 mm 2 mps 759 mmHg 21%
    15:00 +34°C° 0 mm 2 mps 758 mmHg 20%
    16:00 +34°C° 0 mm 2 mps 758 mmHg 19%
    17:00 +31°C° 0 mm 2 mps 757 mmHg 26%
    18:00 +29°C° 0 mm 2 mps 757 mmHg 33%
    19:00 +26°C° 0 mm 2 mps 757 mmHg 40%
    20:00 +25°C° 0 mm 2 mps 757 mmHg 39%
    21:00 +24°C° 0 mm 2 mps 757 mmHg 38%
    22:00 +23°C° 0 mm 2 mps 757 mmHg 37%
    23:00 +23°C° 0 mm 2 mps 757 mmHg 35%

    Day after tomorrow, 13 December, Tuesday

    Time Temperature Precipitation Wind Pressure Humidity
    00:00 +23°C° 0 mm 2 mps 756 mmHg 34%
    01:00 +24°C° 0 mm 2 mps 756 mmHg 32%
    02:00 +24°C° 0 mm 2 mps 755 mmHg 31%
    03:00 +24°C° 0 mm 3 mps 755 mmHg 30%
    04:00 +24°C° 0 mm 3 mps 754 mmHg 29%
    05:00 +25°C° 0 mm 4 mps 754 mmHg 29%
    06:00 +25°C° 0 mm 4 mps 754 mmHg 29%
    07:00 +26°C° 0 mm 4 mps 753 mmHg 28%
    08:00 +28°C° 0 mm 5 mps 753 mmHg 26%
    09:00 +29°C° 0 mm 5 mps 753 mmHg 24%
    10:00 +32°C° 0 mm 6 mps 753 mmHg 22%
    11:00 +33°C° 0 mm 5 mps 753 mmHg 20%
    12:00 +35°C° 0 mm 5 mps 752 mmHg 18%
    13:00 +36°C° 0 mm 4 mps 752 mmHg 16%
    14:00 +35°C° 0 mm 4 mps 752 mmHg 20%
    15:00 +33°C° 0 mm 3 mps 751 mmHg 24%
    16:00 +31°C° 0 mm 2 mps 751 mmHg 27%
    17:00 +29°C° 0 mm 2 mps 752 mmHg 35%
    18:00 +26°C° 0 mm 2 mps 752 mmHg 42%
    19:00 +24°C° 0 mm 1 mps 752 mmHg 49%
    20:00 +23°C° 0 mm 2 mps 753 mmHg 53%
    21:00 +23°C° 0 mm 2 mps 753 mmHg 57%
    22:00 +21°C° 0 mm 2 mps 754 mmHg 60%
    23:00 +20°C° 0 mm 2 mps 754 mmHg 68%

    14 December, Wednesday

    Time Temperature Precipitation Wind Pressure Humidity
    00:00 +19°C° 0 mm 2 mps 754 mmHg 75%
    01:00 +19°C° 0 mm 1 mps 754 mmHg 83%
    02:00 +18°C° 0 mm 2 mps 754 mmHg 82%
    03:00 +17°C° 0 mm 2 mps 754 mmHg 82%
    04:00 +17°C° 0 mm 3 mps 755 mmHg 81%
    05:00 +16°C° 0 mm 3 mps 755 mmHg 78%
    06:00 +16°C° 0 mm 3 mps 756 mmHg 75%
    07:00 +16°C° 0 mm 3 mps 757 mmHg 71%
    08:00 +17°C° 0 mm 3 mps 757 mmHg 67%
    09:00 +17°C° 0 mm 3 mps 757 mmHg 62%
    10:00 +18°C° 0 mm 3 mps 758 mmHg 58%
    11:00 +19°C° 0 mm 3 mps 758 mmHg 55%
    12:00 +20°C° 0 mm 3 mps 758 mmHg 52%
    13:00 +21°C° 0 mm 3 mps 758 mmHg 49%
    14:00 +20°C° 0 mm 3 mps 758 mmHg 51%
    15:00 +20°C° 0 mm 3 mps 758 mmHg 53%
    16:00 +20°C° 0 mm 4 mps 758 mmHg 55%
    17:00 +19°C° 0 mm 4 mps 758 mmHg 58%
    18:00 +17°C° 0 mm 3 mps 759 mmHg 62%
    19:00 +16°C° 0 mm 3 mps 760 mmHg 65%
    20:00 +14°C° 0 mm 3 mps 760 mmHg 69%
    21:00 +13°C° 0 mm 3 mps 761 mmHg 73%
    22:00 +11°C° 0 mm 3 mps 761 mmHg 76%
    23:00 +12°C° 0 mm 2 mps 761 mmHg 78%

    15 December, Thursday

    Time Temperature Precipitation Wind Pressure Humidity
    00:00 +10°C° 0 mm 2 mps 761 mmHg 79%
    01:00 +10°C° 0 mm 2 mps 761 mmHg 80%
    02:00 +10°C° 0 mm 2 mps 761 mmHg 80%
    03:00 +10°C° 0 mm 2 mps 761 mmHg 80%
    04:00 +10°C° 0 mm 2 mps 761 mmHg 80%
    05:00 +12°C° 0 mm 2 mps 762 mmHg 76%
    06:00 +13°C° 0 mm 2 mps 762 mmHg 71%
    07:00 +14°C° 0 mm 2 mps 763 mmHg 67%
    08:00 +15°C° 0 mm 2 mps 762 mmHg 61%
    09:00 +16°C° 0 mm 2 mps 762 mmHg 55%
    10:00 +18°C° 0 mm 3 mps 762 mmHg 50%
    11:00 +19°C° 0 mm 3 mps 762 mmHg 47%
    12:00 +20°C° 0 mm 3 mps 761 mmHg 44%
    13:00 +21°C° 0 mm 3 mps 761 mmHg 41%
    14:00 +21°C° 0 mm 3 mps 761 mmHg 42%
    15:00 +21°C° 0 mm 3 mps 760 mmHg 42%
    16:00 +21°C° 0 mm 3 mps 760 mmHg 43%
    17:00 +20°C° 0 mm 3 mps 761 mmHg 48%
    18:00 +18°C° 0 mm 3 mps 761 mmHg 53%
    19:00 +17°C° 0 mm 3 mps 761 mmHg 58%
    20:00 +14°C° 0 mm 3 mps 762 mmHg 65%
    21:00 +14°C° 0 mm 2 mps 762 mmHg 71%
    22:00 +12°C° 0 mm 2 mps 763 mmHg 78%
    23:00 +12°C° 0 mm 2 mps 762 mmHg 82%

    16 December, Friday

    Time Temperature Precipitation Wind Pressure Humidity
    00:00 +10°C° 0 mm 2 mps 762 mmHg 86%
    01:00 +9°C° 0 mm 2 mps 762 mmHg 90%
    02:00 +10°C° 0 mm 1 mps 762 mmHg 92%
    03:00 +9°C° 0 mm 1 mps 761 mmHg 93%
    04:00 +8°C° 0 mm 1 mps 761 mmHg 95%
    05:00 +11°C° 0 mm 1 mps 761 mmHg 87%
    06:00 +13°C° 0 mm 1 mps 761 mmHg 78%
    07:00 +15°C° 0 mm 1 mps 761 mmHg 70%
    08:00 +19°C° 0 mm 1 mps 761 mmHg 62%
    09:00 +22°C° 0 mm 1 mps 760 mmHg 55%
    10:00 +25°C° 0 mm 1 mps 760 mmHg 47%
    11:00 +27°C° 0 mm 2 mps 759 mmHg 41%
    12:00 +29°C° 0 mm 2 mps 758 mmHg 35%
    13:00 +30°C° 0 mm 2 mps 758 mmHg 29%
    14:00 +30°C° 0 mm 2 mps 757 mmHg 29%
    15:00 +31°C° 0 mm 3 mps 756 mmHg 28%
    16:00 +31°C° 0 mm 3 mps 756 mmHg 28%
    17:00 +28°C° 0 mm 3 mps 756 mmHg 36%
    18:00 +26°C° 0 mm 3 mps 756 mmHg 45%
    19:00 +24°C° 0 mm 2 mps 756 mmHg 54%
    20:00 +20°C° 0 mm 2 mps 756 mmHg 65%
    21:00 +17°C° 0 mm 2 mps 757 mmHg 76%
    22:00 +15°C° 0 mm 1 mps 757 mmHg 87%
    23:00 +14°C° 0 mm 1 mps 756 mmHg 89%
    Show more